全球星 M031星 (GLOBALSTAR M031)

导读 | 星芒AI

GLOBALSTAR M031 是全球星(Globalstar)卫星通信系统中的一颗低轨通信卫星,主要用于提供移动语音和数据服务。该卫星运行在约1414公里的近地轨道,设计寿命约为12至15年。作为全球星第二代卫星(Iridium NEXT 之前)的一部分,M031 支持手持终端和移动设备的通信,广泛应用于偏远地区、海上和航空通信。其部署增强了全球星系统的覆盖范围和通信能力。

基本信息
目录编号:
25946
目录名称:
GLOBALSTAR M031
国际标识:
1999-058D
轨道中心:
EARTH
卫星名称:
全球星 M031星
卫星全名:
全球星 M031星 (GLOBALSTAR M031)
卫星状态:
在轨 (已飞行9556 天)
发射日期:
1999-10-18 UTC
国别 :
(GLOB)
星等 :
--
轨道信息
数据来源 国际轨道数据 AOE轨道数据
星历时间 2025-12-15T16:15:57+0800
16小时前
查看轨道信息
2025-12-10T00:00:00+0800
6天前
查看轨道信息
半长轴 7987.953km 7987.94km
偏心率 0.0001046 0.0001606
轨道倾角 51.998° 51.997°
近地点辐角 179.816° 149.192°
升交点赤经 315.873° 331.720°
平近点角 327.905° 331.243°
近地点 1608.982km 1608.522km
远地点 1610.654km 1611.088km
周期 118.417分钟 118.416分钟
每日圈数 12.160448 12.160477
详细信息
固有亮度:
5
最大亮度:
7.9
平衡模式:
三轴稳定
覆盖范围:
全球
运营商:
全球星公司
运营商所在国:
美国
使用方式:
暂无
卫星简介
全球星星座由48颗卫星加8颗备份星组成。这些卫星分布在8个倾角为52度的圆形轨道平面上,每个轨道平面6颗卫星,另有1 颗备用星。轨道高度约为1414km,传输时延和处理时延小于300ms,整个系统的覆盖区为南北纬70度以内的地区。该卫星已退役。
2D轨道图
3D轨道图
轨道高度分析图
轨道倾角分析图
轨道综合分析图
查看轨道综合分析图